DELTA 1 DEB, 42563

Orbit data source: Space-Track

DELTA 1 DEB, 42563 is space debris in SSO originally from a launch on Sun, 23 Jul 1972 UTC launched from the Air Force Western Test Range (AFWTR). Debris objects in space refer to the collection of defunct objects orbiting the Earth. Examples of debris include non-operational satellites, rocket bodies, and fragments generated from explosions, collisions, or faulty payload assembly.

Loading next visibility...
Identifier
42563, 1972-058JW
Orbit
SSO
Country
Flag of USUS
Related business
Manufacturer
Unknown
Mission
Spacecraft
Bus & Motor
Unknown
Mass
Unknown
Launch date (UTC)
1972-07-23 (53 years ago)
Launch vehicle
Unknown
Launch site
Air Force Western Test Range (AFWTR)
Object type
Payload
Rocket body
Debris
Shape & HBR
Unknown
Radar Cross Section
Small (<0.1 m²)

Expand to show TLE details & history
Last TLE update: 2 days ago

TLE from 2 days ago
0 DELTA 1 DEB
1 42563U 72058JW  25258.16517849  .00000362  00000-0  33448-3 0  9991
2 42563  98.8046  32.8437 0249817  72.5650 290.2646 13.74843310585911
Epoch: 2025-09-15T03:57Z
TLE epoch observation values (Epoch: 2025-09-15T03:57:51.421Z)
Latitude
-0.00002°
Longitude
-20.9943°
Altitude
925.481 km
Speed
7.419 km/s
True Right ascension
02h 11m 22s
True Declination
0° 00' 00"
Sunlit
Object was in full shadow at epoch
Visualization orbit readout
Latitude
Unknown
Longitude
Unknown
Altitude
Unknown
Speed
Unknown
Apparent Right ascension
Unknown
Apparent Declination
Unknown
Sunlit
N/A
Visualization observer readout
Local Sidereal Time
12:27:18
Azimuth
Unknown
Elevation
Unknown
Doppler factor
Unknown
Orbital elements
Apogee altitude
1,163.26 km
Perigee altitude
795.65 km
Semi-major axis
7,357.592 km
Eccentricity
0.02498
Inclination
98.8046°
RAAN
32.8437°
Arg. of periapsis
72.565°
True anomaly
287.55077°
Mean anomaly
290.2646°
Eccentric anomaly
288.91051°
Mean motion
3.43906 °/min
Orbital period
104.68 mins
BSTAR
0.00033448
Loading maneuver chart data...
Computing Atmospheric mass density...

Documentation

Showing up to 5 results
|